Location: Pardubice
(50.0330°N, 15.7830°E)
Time: 09:54:20
(UTC+02:00)

S-56A Canister/Altair - All Passes

Search period start: 07 October 2024 00:00
Search period end: 17 October 2024 00:00
Orbit: 636 x 2487 km, 38.9° (Epoch: 06 October)

Date Brightness Start Highest point End Pass type
(mag) Time Alt. Az. Time Alt. Az. Time Alt. Az.
07 Oct - 11:16:40 10° S 11:19:43 13° SSE 11:22:24 10° SE daylight
07 Oct - 13:17:54 10° SW 13:22:43 23° S 13:26:36 10° ESE daylight
07 Oct - 15:21:34 10° WSW 15:25:25 21° S 15:28:51 10° SE daylight
08 Oct - 10:42:49 10° S 10:45:49 12° SSE 10:48:29 10° SE daylight
08 Oct - 12:43:41 10° SW 12:48:54 23° S 12:53:01 10° ESE daylight
08 Oct - 14:47:24 10° WSW 14:51:42 23° S 14:55:22 10° SE daylight
08 Oct - 16:52:58 10° SW 16:54:05 11° SSW 16:55:11 10° SSW daylight
09 Oct - 10:09:01 10° S 10:11:52 12° SSE 10:14:27 10° SE daylight
09 Oct - 12:09:24 10° SW 12:15:04 23° S 12:19:26 10° ESE daylight
09 Oct - 14:13:08 10° WSW 14:17:58 25° S 14:21:53 10° SE daylight
09 Oct - 16:18:13 10° SW 16:20:22 13° SSW 16:22:26 10° S daylight
10 Oct - 09:35:19 10° SSE 09:37:54 11° SSE 09:40:14 10° SE daylight
10 Oct - 11:35:04 10° SW 11:41:10 24° SSE 11:45:50 10° ESE daylight
10 Oct - 13:38:49 10° WSW 13:44:11 27° S 13:48:23 10° SE daylight
10 Oct - 15:43:43 10° WSW 15:46:41 15° SSW 15:49:22 10° SSE daylight
11 Oct - 09:01:54 10° SSE 09:03:53 11° SSE 09:05:44 10° SE daylight
11 Oct - 11:00:42 10° SSW 11:07:14 24° SSE 11:12:11 10° ESE daylight
11 Oct - 13:04:24 10° WSW 13:10:22 29° S 13:14:54 10° SE daylight
11 Oct - 15:09:16 10° WSW 15:12:58 18° SSW 15:16:10 10° SSE daylight
12 Oct - 10:26:17 10° SSW 10:33:15 23° SSE 10:38:30 10° ESE daylight
12 Oct - 12:29:55 10° WSW 12:36:31 30° S 12:41:23 10° ESE daylight
12 Oct - 14:34:48 10° WSW 14:39:14 21° SSW 14:42:54 10° SSE daylight
13 Oct - 09:51:51 10° SSW 09:59:12 23° SSE 10:04:46 10° ESE daylight
13 Oct - 11:55:22 10° WSW 12:02:36 32° S 12:07:49 10° ESE daylight
13 Oct - 14:00:17 10° WSW 14:05:28 24° SSW 14:09:34 10° SE daylight
14 Oct - 09:17:26 10° SSW 09:25:06 23° SSE 09:30:58 10° ESE daylight
14 Oct - 11:20:45 10° SW 11:28:38 33° S 11:34:14 10° ESE daylight
14 Oct - 13:25:43 10° WSW 13:31:40 27° SSW 13:36:11 10° SE daylight
14 Oct - 15:33:37 10° SW 15:33:50 10° SW 15:34:02 10° SW daylight
15 Oct - 08:43:03 10° SSW 08:50:56 22° SSE 08:57:05 10° ESE daylight
15 Oct - 10:46:05 10° SW 10:54:36 34° S 11:00:38 10° ESE daylight
15 Oct - 12:51:05 10° WSW 12:57:49 30° SSW 13:02:46 10° SE daylight
15 Oct - 14:57:28 10° WSW 15:00:07 13° SW 15:02:30 10° S daylight
16 Oct - 08:08:42 10° SSW 08:16:45 21° SSE 08:23:07 10° ESE daylight
16 Oct - 10:11:22 10° SW 10:20:31 34° S 10:26:58 10° ESE daylight
16 Oct - 12:16:23 10° WSW 12:23:55 33° S 12:29:17 10° SE daylight
16 Oct - 14:22:26 10° WSW 14:26:23 16° SSW 14:29:42 10° S daylight
